最終更新日: 2026-09-04
| 認証年月日 | 認証番号 |
機器の種別
|
氏名又は名称 | 型式又は名称 |
|---|---|---|---|---|
| 2024-11-25 | 003-220046 | 第2条第19号の3 | VVDN Technologies Pvt. Ltd. | SF-1、SF-1S 又は SF-1V |
| 2024-11-25 | 007-AH0081 | 第2条第19号 | SONOS INC | S16 |
| 2024-11-25 | 201-240748 | 第2条第19号 | BENQ CORPORATION | EC1-DW-D EC1-DW |
| 2024-11-25 | 201-240749 | 第2条第19号 | BENQ CORPORATION | EC2-DW-D EC2-DW |
| 2024-11-25 | 201-240750 | 第2条第19号 | BENQ CORPORATION | EC3-DW-D EC3-DW |
| 2024-11-25 | 201-240524 | 第2条第19号 | BENQ CORPORATION | U2-DW-D U2-DW U3-DW-D U3-DW |
| 2024-11-25 | 220-JP8442 | 第2条第19号 | Yell Co., Ltd | YBE-148 |
| 2024-11-25 | 220-JP8489 | 第2条第19号 | Guangzhou L-TEK Enterprise Co.,Ltd | 2426/ASA-03 |
| 2024-11-25 | 017-240027 | 第2条第19号 | 株式会社Evolete | 1-10RX |
| 2024-11-25 | 017-240026 | 第2条第19号 | 株式会社Evolete | 1-10TX |
| 2024-11-25 | 017-240025 | 第2条第19号 | 株式会社Evolete | 1-16RX |
| 2024-11-25 | 017-240024 | 第2条第19号 | 株式会社Evolete | 1-16TX |
| 2024-11-25 | 017-240029 | 第2条第19号 | 株式会社Evolete | 1-16TX-2 |
| 2024-11-25 | 001-P01862 | 第2条第19号 | 株式会社村田製作所 | LBEE5XV2EA |
| 2024-11-25 | 001-P01862 | 第2条第19号 | 株式会社村田製作所 | LBEE5XV2EA |
| 2024-11-25 | 001-P01886 | 第2条第19号 | 株式会社村田製作所 | LBEE5XV2EB |
| 2024-11-25 | 001-P01886 | 第2条第19号 | 株式会社村田製作所 | LBEE5XV2EB |
| 2024-11-25 | 219-239405 | 第2条第19号 | IoTBank Co., Ltd. | C60, C60A, C60A1, C60A2, C60K, C60K1, C60K2, C60S, C60S1, C60S2, C60P, C60P1, C60P2 |
| 2024-11-25 | 220-JP8564 | 第2条第19号 | Weifang Kaisheng International Trade Co. LTD | DEH-0.5T-7.5M-BL, DEH |
| 2024-11-25 | 022-240065 | 第2条第19号 | LOGITECH FAR EAST LTD. | MR0117 |
| 2024-11-25 | 012-240012 | 第2条第19号 | Microlife Corporation | BP3MX1-3C |
| 2024-11-25 | 201-171012 | 第2条第19号 | Universal Electronics Inc. | 59007 |
| 2024-11-25 | 003-200209 | 第2条第19号 | Intel Corporation SAS | AX210NGW |
| 2024-11-25 | 003-200209 | 第2条第19号 | Intel Corporation SAS | AX210NGW |
| 2024-11-25 | 219-248288 | 第2条第19号 | Shanghai Orange Box Digital Technology Co., Ltd. | N170 |
| 2024-11-25 | 220-JP7075 | 第2条第19号 | Wuhan Qiwu Technology Co.,Ltd. | VS1200, VS1200S, VS1200P, VS1200C |
| 2024-11-25 | 220-JP8551 | 第2条第19号 | Wuhan Qiwu Technology Co.,Ltd. | VS1200, VS1200S, VS1200P, VS1200C |
| 2024-11-25 | 220-JP7722 | 第2条第19号 | Wuhan Qiwu Technology Co.,Ltd. | VS1800, VS1800S, VS1800P, VS1800C |
| 2024-11-25 | 220-JP8552 | 第2条第19号 | Wuhan Qiwu Technology Co.,Ltd. | VS1800, VS1800S, VS1800P, VS1800C |
| 2024-11-25 | 003-220046 | 第2条第19号 | VVDN Technologies Pvt. Ltd. | SF-1、SF-1S 又は SF-1V |
| 2024-11-25 | 003-220046 | 第2条第19号 | VVDN Technologies Pvt. Ltd. | SF-1、SF-1S 又は SF-1V |
| 2024-11-25 | 201-240629 | 第2条第19号 | DIGI SINGAPORE PTE. LTD. | InfoTag2.13 |
| 2024-11-25 | 217-241714 | 第2条第19号 | Shenzhen Scyrox Electronic Limited | Gaming mouse, V6 |
| 2024-11-25 | 005-103533 | 第2条第11号の30 | Samsung Electronics Co., Ltd. | Santa_ERD_DCM |
| 2024-11-25 | 005-103533 | 第2条第11号の19 | Samsung Electronics Co., Ltd. | Santa_ERD_DCM |
| 2024-11-25 | 020-240306 | 第2条第11号の19 | LG Electronics Inc. | TF24IEAE |
| 2024-11-25 | 020-240307 | 第2条第11号の19 | LG Electronics Inc. | TF24SEAI |
| 2024-11-25 | 020-240306 | 第2条第11号の34 | LG Electronics Inc. | TF24IEAE |
| 2024-11-25 | 020-240307 | 第2条第11号の34 | LG Electronics Inc. | TF24SEAI |
| 2024-11-25 | 005-103533 | 第2条第11号の34 | Samsung Electronics Co., Ltd. | Santa_ERD_DCM |
| 2024-11-24 | 216-240011 | 第2条第19号 | bHaptics Inc. | BHTA03M1D |
| 2024-11-22 | 003-240297 | 第2条第11号の21 | ソニー株式会社 | SL-1001-4C |
| 2024-11-22 | 003-240296 | 第2条第11号の21 | S&Cアソシエイツ株式会社 | CC2409 |
| 2024-11-22 | 020-230387 | 第2条第79号 | Realtek Semiconductor Corp. | RTL8922AE |
| 2024-11-22 | 003-240296 | 第2条第54号の6 | S&Cアソシエイツ株式会社 | CC2409 |
| 2024-11-22 | 001ATBA3000094 | 第2条第21号の2 | パナソニック エンターテインメント&コミュニケーション株式会社 | WX-ST200 |
| 2024-11-22 | 001-X00519 | 第2条第1号の10 | 長野日本無線株式会社 | NJT-595-4A |
| 2024-11-22 | 020-230387 | 第2条第80号 | Realtek Semiconductor Corp. | RTL8922AE |
| 2024-11-22 | 001YKA3011527~001YKA3011850 | 第2条第8号 | 三菱電機株式会社 | MRSS01 |
| 2024-11-22 | 001-A21669 | 第2条第8号 | ソニーセミコンダクタソリューションズ株式会社 | SMSD-1003 |
| 2024-11-22 | 214-240562 | 第2条第8号 | Netvox Technology Co., Ltd. | netvox; Model: R107H |
| 2024-11-22 | 217-241856 | 第2条第8号 | REUDO CO., LTD | Wireless Kinetic Switch, BM-J01 |
| 2024-11-22 | 020-240370 | 第2条第8号 | CIPHERLAB CO., LTD. | RS36 NUHF |
| 2024-11-22 | 217-241741 | 第2条第19号の3 | SATSUKI CO., LTD. | Interactive Intelligent Panel, M65CETS |
| 2024-11-22 | 214-240583 | 第2条第19号の3 | SHEN ZHEN NST INDUSTRY AND TRADE CO.,LTD | Model: Ctab 10, T10S, M107GA |
| 2024-11-22 | 003-240296 | 第2条第19号の3 | S&Cアソシエイツ株式会社 | CC2409 |
| 2024-11-22 | 020-230387 | 第2条第19号の3 | Realtek Semiconductor Corp. | RTL8922AE |
| 2024-11-22 | 003-240296 | 第2条第11号の3 | S&Cアソシエイツ株式会社 | CC2409 |
| 2024-11-22 | 217-241818 | 第2条第19号の2の2 | Guangzhou Xaircraft Technology CO., LTD. | XAG DL1 Data Link, M3DL1A |
| 2024-11-22 | 210-243626 | 第2条第19号 | Just match co., ltd | Truly Wireless Open Ear Headphones [J180, J181, J182, J183, J185, J186, J187, J188, J189, J190] |
| 2024-11-22 | 214-240551 | 第2条第19号 | Shenzhen Soundsoul Information Technology Co.,Ltd | SOUNDPEATS Model: PearlClip Pro,Clip 1 Lite, Clip 1 , Clip 1 Pro,POP Clip,Arc,PearlClip2,RunFree2,AirClip,POP Clip2,QuietClip,GoFree 3,Q40 HD, Q45HD |
| 2024-11-22 | 217-241858 | 第2条第19号 | Xiaomi Communications Co., Ltd. | Wireless Earphones; M2437E1 |
| 2024-11-22 | 217-241818 | 第2条第19号 | Guangzhou Xaircraft Technology CO., LTD. | XAG DL1 Data Link, M3DL1A |
| 2024-11-22 | 001-A21769 | 第2条第19号 | 株式会社日立国際電気 | Base Station |
| 2024-11-22 | 001-A21770 | 第2条第19号 | 株式会社日立国際電気 | Mobile Station |
| 2024-11-22 | 210-241037 | 第2条第19号 | Roland Corporation | DH-10 [DH-10] |
| 2024-11-22 | 210-241034 | 第2条第19号 | Roland Corporation | WT-10 [WT-10] |
| 2024-11-22 | 218-240350 | 第2条第19号 | Butlr Technologies Inc | HS08WL90PR |
| 2024-11-22 | 220-JP8524 | 第2条第19号 | MARUKAN CO., LTD. | DA-463 |
| 2024-11-22 | 217-241741 | 第2条第19号 | SATSUKI CO., LTD. | Interactive Intelligent Panel, M65CETS |
| 2024-11-22 | 219-249438 | 第2条第19号 | IoTBank Co., Ltd. | C60A, C60A1, C60A2, C60B, C60B1, C60B2, C60C, C60C1, C60C2, C60K, C60K1, C60K2 |
| 2024-11-22 | 217-241816 | 第2条第19号 | Vertex Co., Ltd | 7-color LED waterproof speaker, D-SP1 WH, F23 |
| 2024-11-22 | 217-241817 | 第2条第19号 | Vertex Co., Ltd | Illumination water Proof Speaker, D-SP2 WH, F21, F21A |
| 2024-11-22 | 214-240654 | 第2条第19号 | PEAG, LLC dba JLab Audio | JLAB Model: Flow Keyboard |
| 2024-11-22 | 218-230140 | 第2条第19号 | SteelSeries ApS. | HS43 |
| 2024-11-22 | 218-240488 | 第2条第19号 | SteelSeries ApS. | HS43TX |
| 2024-11-22 | 214-240583 | 第2条第19号 | SHEN ZHEN NST INDUSTRY AND TRADE CO.,LTD | Model: Ctab 10, T10S, M107GA |
| 2024-11-22 | 220-JP8494 | 第2条第19号 | Shenzhen Wenjia Technology Co., Ltd | C300PRO, C600, C800, C1, C2, C5, C6, C7, C8, C9 |
| 2024-11-22 | 210-242468 | 第2条第19号 | Tiinlab Corporation | Wireless Headphones [HQ31 ] |
| 2024-11-22 | 214-240655 | 第2条第19号 | Shenzhen Monkey Creative Technology Co., Ltd. | nimin; Model: JD01 |
| 2024-11-22 | 214-240658 | 第2条第19号 | Shenzhen Monkey Creative Technology Co., Ltd. | nimin; Model: V06 |
| 2024-11-22 | 210-241550 | 第2条第19号 | FUGU INNOVATIONS JAPAN | Ultra-low latency TWS earphones [RG-TW970] |
| 2024-11-22 | 210-241556 | 第2条第19号 | FUGU INNOVATIONS JAPAN | Ultra-low latency TWS earphones Dongle [RG-TW970D] |
| 2024-11-22 | 003-240296 | 第2条第19号 | S&Cアソシエイツ株式会社 | CC2409 |
| 2024-11-22 | 003-240296 | 第2条第19号 | S&Cアソシエイツ株式会社 | CC2409 |
| 2024-11-22 | 020-230387 | 第2条第19号 | Realtek Semiconductor Corp. | RTL8922AE |
| 2024-11-22 | 001QAA3003275 | 第2条第2号 | 株式会社YDKテクノロジーズ | WJ7651 |
| 2024-11-22 | 003-240296 | 第2条第11号の7 | S&Cアソシエイツ株式会社 | CC2409 |
| 2024-11-22 | 003-240296 | 第2条第11号の30 | S&Cアソシエイツ株式会社 | CC2409 |
| 2024-11-22 | 003-240297 | 第2条第11号の30 | ソニー株式会社 | SL-1001-4C |
| 2024-11-22 | 003-240296 | 第2条第11号の19 | S&Cアソシエイツ株式会社 | CC2409 |
| 2024-11-22 | 003-240297 | 第2条第11号の19 | ソニー株式会社 | SL-1001-4C |
| 2024-11-22 | 020-230387 | 第2条第19号の2 | Realtek Semiconductor Corp. | RTL8922AE |
| 2024-11-22 | 003-240297 | 第2条第11号の34 | ソニー株式会社 | SL-1001-4C |
| 2024-11-22 | 003-240296 | 第2条第11号の34 | S&Cアソシエイツ株式会社 | CC2409 |
| 2024-11-22 | 003-240296 | 第2条第21号の3 | S&Cアソシエイツ株式会社 | CC2409 |
| 2024-11-22 | 003-240296 | 第2条第54号 | S&Cアソシエイツ株式会社 | CC2409 |
| 2024-11-22 | 003-240297 | 第2条第54号 | ソニー株式会社 | SL-1001-4C |
| 2024-11-21 | 003-230108 | 第2条第11号の21 | Sierra Wireless, ULC. | EM9291 |
| 2024-11-21 | 204-A00050 | 第2条第8号 | Continental Advanced Antenna GmbH | 2032V01ME1 |